Altoona, PA

8:07 PM EST on November 15, 2019 (GMT -0500)
Altoona-Blair County

Weather History for KAOO - September, 2019

Change the Weather History Date:

Thursday, September 19, 2019

  Actual Average Record
Temperature  
Mean Temperature 59 °F 60 °F  
Max Temperature 72 °F 71 °F 88 °F (1983)
Min Temperature 46 °F 50 °F 33 °F (1959)
Degree Days  
Heating Degree Days 6 6  
Month to date heating degree days 18 63  
Since 1 July heating degree days 27 95  
Cooling Degree Days 0 1  
Month to date cooling degree days 58 38  
Year to date cooling degree days 703 517  
Growing Degree Days 8 (Base 50)    
Moisture  
Dew Point 47 °F    
Average Humidity 63    
Maximum Humidity 86    
Minimum Humidity 40    
Precipitation  
Precipitation 0.00 in 0.12 in 1.21 in (2003)
Month to date precipitation 1.03 2.24  
Year to date precipitation 30.72 26.17  
Sea Level Pressure  
Sea Level Pressure 30.30 in    
Wind  
Wind Speed 5 mph (SSE)    
Max Wind Speed 13 mph    
Max Gust Speed 16 mph    
Visibility 10 miles    
Events      
T = Trace of Precipitation, MM = Missing Value Source: NWS Daily Summary

Daily Weather History Graph

Daily Weather History Graph

Search for Another Location

Airport or City:

Astronomy

Sep. 19, 2019 Rise Set
Actual Time 6:57 AM EDT 7:15 PM EDT
Civil Twilight 6:30 AM EDT 7:42 PM EDT
Nautical Twilight 5:58 AM EDT 8:14 PM EDT
Astronomical Twilight 5:25 AM EDT 8:47 PM EDT
Moon 10:23 PM EDT (9/19) 11:59 AM EDT (9/19)
Length of Visible Light 13h 12m
Length of Day
12h 18m
Waning Gibbous, 74% of the Moon is Illuminated
Sep 19
Waning Gibbous
Sep 21
Last Quarter
Sep 28
New
Oct 5
First Quarter
Oct 13
Full

Hourly Weather History & Observations

Time (EDT) Temp. Dew Point Humidity Pressure Visibility Wind Dir Wind Speed Gust Speed Precip Events Conditions
12:53 AM 52.0 °F 43.0 °F 71% 30.27 in 10.0 mi ENE 3.5 mph - N/A   Clear
1:53 AM 48.9 °F 43.0 °F 80% 30.28 in 10.0 mi Calm Calm - N/A   Clear
2:53 AM 46.9 °F 43.0 °F 86% 30.29 in 10.0 mi Calm Calm - N/A   Clear
3:53 AM 48.0 °F 43.0 °F 83% 30.29 in 10.0 mi SE 3.5 mph - N/A   Clear
4:53 AM 54.0 °F 46.0 °F 75% 30.29 in 10.0 mi ESE 4.6 mph - N/A   Clear
5:42 AM 55.9 °F 50.0 °F 80% 30.30 in 10.0 mi SSE 9.2 mph - N/A   Mostly Cloudy
5:53 AM 55.9 °F 51.1 °F 84% 30.29 in 10.0 mi South 6.9 mph - N/A   Overcast
6:53 AM 55.0 °F 50.0 °F 83% 30.31 in 10.0 mi SE 3.5 mph - N/A   Overcast
7:39 AM 55.9 °F 50.0 °F 80% 30.32 in 10.0 mi Calm Calm - N/A   Overcast
7:53 AM 55.9 °F 50.0 °F 80% 30.33 in 10.0 mi Calm Calm - N/A   Overcast
8:26 AM 55.9 °F 50.0 °F 80% 30.33 in 10.0 mi SSE 3.5 mph - N/A   Mostly Cloudy
8:53 AM 57.0 °F 51.1 °F 81% 30.34 in 10.0 mi SE 5.8 mph - N/A   Mostly Cloudy
9:35 AM 59.0 °F 51.1 °F 75% 30.34 in 10.0 mi SSE 8.1 mph - N/A   Mostly Cloudy
9:53 AM 61.0 °F 52.0 °F 72% 30.35 in 10.0 mi South 5.8 mph - N/A   Mostly Cloudy
10:53 AM 61.0 °F 48.9 °F 64% 30.35 in 10.0 mi SSW 9.2 mph - N/A   Mostly Cloudy
11:53 AM 64.0 °F 48.0 °F 56% 30.35 in 10.0 mi SSE 5.8 mph - N/A   Mostly Cloudy
12:53 PM 66.0 °F 48.9 °F 54% 30.33 in 10.0 mi Variable 6.9 mph - N/A   Clear
1:53 PM 68.0 °F 46.9 °F 47% 30.31 in 10.0 mi South 9.2 mph - N/A   Partly Cloudy
2:53 PM 69.1 °F 46.9 °F 45% 30.31 in 10.0 mi South 6.9 mph - N/A   Clear
3:53 PM 69.1 °F 46.0 °F 44% 30.28 in 10.0 mi South 4.6 mph - N/A   Clear
4:53 PM 70.0 °F 45.0 °F 41% 30.27 in 10.0 mi South 5.8 mph - N/A   Clear
5:53 PM 70.0 °F 45.0 °F 41% 30.27 in 10.0 mi SSE 6.9 mph - N/A   Clear
6:53 PM 64.9 °F 45.0 °F 48% 30.27 in 10.0 mi SSE 4.6 mph - N/A   Clear
7:53 PM 57.9 °F 45.0 °F 62% 30.27 in 10.0 mi SSE 4.6 mph - N/A   Clear
8:53 PM 57.9 °F 45.0 °F 62% 30.29 in 10.0 mi SSE 4.6 mph - N/A   Clear
9:53 PM 54.0 °F 44.1 °F 69% 30.29 in 10.0 mi SSW 6.9 mph - N/A   Clear
10:53 PM 57.0 °F 44.1 °F 62% 30.29 in 10.0 mi South 5.8 mph - N/A   Clear
11:53 PM 52.0 °F 44.1 °F 74% 30.29 in 10.0 mi Calm Calm - N/A   Clear